This is the latest recevied weather packets stored in our database for station/object VR2OT-10. If no packets are shown the sender has not sent any weather packets the latest 10 day(s).
| Time | Temp. | Humidity | Pressure | Rain* | Wind** | Luminosity | Snow |
|---|---|---|---|---|---|---|---|
| 1777590139 | 21.11° C | 75% | 1015 hPa | - | 1.79 m/s, 45° | - | - |
| 1777589238 | 21.11° C | 76% | 1014.9 hPa | - | 1.34 m/s, 90° | - | - |
| 1777588339 | 20.56° C | 77% | 1014.9 hPa | - | 2.24 m/s, 45° | - | - |
| 1777587438 | 20.56° C | 76% | 1014.9 hPa | - | 1.34 m/s, 45° | - | - |
| 1777586537 | 20.56° C | 78% | 1014.9 hPa | - | 1.34 m/s, 45° | - | - |
| 1777585637 | 20.56° C | 78% | 1014.8 hPa | - | 2.68 m/s, 45° | - | - |
| 1777583837 | 20.56° C | 78% | 1014.6 hPa | - | 1.34 m/s, 45° | - | - |
| 1777582939 | 20.56° C | 79% | 1014.5 hPa | - | 0.89 m/s, 0° | - | - |
| 1777582038 | 20.56° C | 80% | 1014.5 hPa | - | 1.34 m/s, 90° | - | - |
| 1777581138 | 20.56° C | 81% | 1014.5 hPa | - | 0.89 m/s, 45° | - | - |
| 1777579338 | 20.56° C | 77% | 1014.4 hPa | - | 0.45 m/s, ° | - | - |
| 1777577539 | 21.11° C | 78% | 1014.4 hPa | - | 1.34 m/s, 315° | - | - |
| 1777576638 | 21.11° C | 78% | 1014.5 hPa | - | 1.34 m/s, 315° | - | - |
| 1777574838 | 21.11° C | 79% | 1014.3 hPa | - | 3.13 m/s, 0° | - | - |
| 1777573939 | 21.11° C | 78% | 1014.3 hPa | - | 2.68 m/s, 45° | - | - |
| 1777572139 | 20.56° C | 74% | 1014.5 hPa | - | 2.68 m/s, 135° | - | - |
| 1777571238 | 20.56° C | 72% | 1014.6 hPa | - | 2.68 m/s, 135° | - | - |
| 1777570338 | 21.67° C | 73% | 1014.6 hPa | - | 0.89 m/s, 0° | - | - |
| 1777569438 | 21.67° C | 74% | 1014.7 hPa | - | 1.79 m/s, 0° | - | - |
| 1777568538 | 21.67° C | 73% | 1014.8 hPa | - | 0.45 m/s, 270° | - | - |
| 1777567638 | 21.67° C | 73% | 1014.8 hPa | - | 0.89 m/s, 135° | - | - |
| 1777566738 | 21.67° C | 75% | 1015 hPa | - | 1.34 m/s, 135° | - | - |
| 1777564937 | 21.67° C | 73% | 1015.2 hPa | - | 1.34 m/s, 135° | - | - |
| 1777564038 | 21.67° C | 74% | 1015.3 hPa | - | 0 m/s | - | - |
| 1777563139 | 21.11° C | 72% | 1015.5 hPa | - | 0 m/s | - | - |
* Rain since midnight (hover to see other rain measurements)
** Current wind speed in m/s (hover to see current wind gust speed)